This demonstration page uses our WeatherBlox Daily Observations layout. Learn more.

Left ArrowRight Arrow

44.8408, -93.29828

Hourly Observations for July 25, 2019

Temp ( °F °C ) Dew Point ( °F °C ) Humidity (%) Winds ( mph kmh ) Pressure ( in mb ) Visibility ( mi km ) Precip ( " mm )
12:53 am 00:53 Partly Cloudy 73 22.8 60 15.6 64 64 S 8 13 30.06 1018 10 16 0.00 0.00
1:53 am 01:53 Partly Cloudy 72 22.2 59 15 64 64 S 7 11 30.07 1018 10 16 0.00 0.00
2:53 am 02:53 Partly Cloudy 71 21.7 59 15 66 66 S 6 9 30.07 1018 10 16 0.00 0.00
3:53 am 03:53 Partly Cloudy 67 19.4 59 15 76 76 SSE 6 9 30.08 1019 10 16 0.00 0.00
4:53 am 04:53 Partly Cloudy 67 19.4 59 15 76 76 S 6 9 30.08 1019 10 16 0.00 0.00
5:53 am 05:53 Partly Cloudy 68 20 59 15 73 73 S 9 15 30.07 1018 10 16 0.00 0.00
6:53 am 06:53 Mostly Cloudy 68 20 59 15 73 73 S 8 13 30.06 1018 10 16 0.00 0.00
7:53 am 07:53 Mostly Cloudy 69 20.6 59 15 70 70 SSE 8 13 30.06 1018 10 16 0.00 0.00
8:53 am 08:53 Mostly Cloudy 72 22.2 59 15 64 64 S 9 15 30.06 1018 10 16 0.00 0.00
9:53 am 09:53 Mostly Cloudy 75 23.9 59 15 58 58 S 13 20 30.06 1018 10 16 0.00 0.00
10:53 am 10:53 Mostly Cloudy 77 25 59 15 54 54 S 14 22 30.05 1018 10 16 0.00 0.00
11:53 am 11:53 Mostly Cloudy 78 25.6 59 15 52 52 S 17 28 30.04 1017 10 16 0.00 0.00
12:53 pm 12:53 Mostly Cloudy 80 26.7 57 13.9 45 45 SW 22 35 30.04 1017 10 16 0.00 0.00
1:53 pm 13:53 Mostly Cloudy 81 27.2 59 15 47 47 SSW 16 26 30.03 1017 10 16 0.00 0.00
2:53 pm 14:53 Mostly Cloudy 80 26.7 60 15.6 51 51 SW 14 22 30.04 1017 10 16 0.00 0.00
3:53 pm 15:53 Mostly Cloudy 78 25.6 60 15.6 54 54 SSW 17 28 30.05 1018 10 16 0.00 0.00
4:53 pm 16:53 Mostly Cloudy 75 23.9 61 16.1 62 62 SSW 17 28 30.04 1017 10 16 0.00 0.00
5:53 pm 17:53 Mostly Cloudy 74 23.3 61 16.1 64 64 SW 13 20 30.04 1017 10 16 0.00 0.00
6:53 pm 18:53 Mostly Cloudy 73 22.8 61 16.1 66 66 SSW 14 22 30.04 1017 10 16 0.00 0.00
7:53 pm 19:53 Mostly Cloudy 72 22.2 61 16.1 68 68 SSW 12 19 30.03 1017 10 16 0.00 0.00
8:53 pm 20:53 Cloudy 70 21.1 62 16.7 76 76 S 12 19 30.01 1016 10 16 0.00 0.00
8:59 pm 20:59 Cloudy 70 21.1 62 16.7 76 76 S 8 13 29.99 1016 10 16 0.00 0.00
9:30 pm 21:30 Partly Cloudy 70 21.1 63 17.2 79 79 S 8 13 29.99 1016 10 16 0.00 0.00
9:53 pm 21:53 Mostly Clear 70 21.1 62 16.7 76 76 S 9 15 30.01 1016 10 16 0.00 0.00
10:53 pm 22:53 Mostly Clear 70 21.1 62 16.7 76 76 S 9 15 30.02 1017 10 16 0.00 0.00
11:53 pm 23:53 Partly Cloudy 68 20 62 16.7 81 81 SE 8 13 30.02 1017 10 16 0.00 0.00

Powered by AerisWeather